Air Force Academy, CO

6:56 AM MDT on September 24, 2017 (GMT -0600)
Usaf Academy

Weather History for KAFF - January, 2013

Change the Weather History Date:

Saturday, January 12, 2013

  Actual Average Record
Temperature  
Mean Temperature 8 °F -  
Max Temperature 19 °F 42 °F 55 °F (2000)
Min Temperature -2 °F 18 °F -9 °F (1997)
Degree Days  
Heating Degree Days 56    
Moisture  
Dew Point -4 °F    
Average Humidity 60    
Maximum Humidity 78    
Minimum Humidity 22    
Precipitation  
Precipitation 0.00 in - - ()
Sea Level Pressure  
Sea Level Pressure 29.93 in    
Wind  
Wind Speed 8 mph (ENE)    
Max Wind Speed 17 mph    
Max Gust Speed 21 mph    
Visibility 10 miles    
Events Snow    
Averages and records for this station are not official NWS values.
T = Trace of Precipitation, MM = Missing Value Source: NWS Daily Summary

Daily Weather History Graph

Daily Weather History Graph

Search for Another Location

Airport or City:

Trip Planner

Search our weather history database for the weather conditions in past years. The results will help you decide how hot, cold, wet, or windy it might be!

Date:

Astronomy

Jan. 12, 2013 Rise Set
Actual Time 7:17 AM MST 4:58 PM MST
Civil Twilight 6:47 AM MST 5:27 PM MST
Nautical Twilight 6:14 AM MST 6:00 PM MST
Astronomical Twilight 5:42 AM MST 6:32 PM MST
Moon 7:38 AM MST (1/12) 6:29 PM MST (1/12)
Length of Visible Light 10h 39m
Length of Day
9h 41m
New Moon, 1% of the Moon is Illuminated
Jan 12
New Moon
Jan 18
First Quarter
Jan 26
Full
Feb 3
Last Quarter
Feb 10
New

Hourly Weather History & Observations

Time (MST) Temp. Windchill Dew Point Humidity Pressure Visibility Wind Dir Wind Speed Gust Speed Precip Events Conditions
12:58 AM 14.9 °F 2.3 °F -7.4 °F 37% 29.85 in 10.0 mi WNW 10.4 mph - N/A   Clear
1:58 AM 15.1 °F 4.2 °F -7.1 °F 37% 29.86 in 10.0 mi West 8.1 mph 20.7 mph N/A   Clear
2:58 AM 14.7 °F 0.1 °F -10.5 °F 32% 29.88 in 10.0 mi West 13.8 mph - N/A   Clear
3:58 AM 10.2 °F -3.5 °F -10.7 °F 39% 29.91 in 10.0 mi NNE 10.4 mph - N/A   Clear
4:58 AM 12.4 °F 3.1 °F -14.8 °F 29% 29.91 in 10.0 mi NE 5.8 mph - N/A   Clear
5:58 AM 5.2 °F -7.9 °F -13.7 °F 42% 29.98 in 10.0 mi NE 8.1 mph - N/A   Clear
6:58 AM 1.6 °F -12.2 °F -13.7 °F 49% 30.02 in 10.0 mi North 8.1 mph - N/A   Clear
7:58 AM 4.3 °F -9.0 °F -14.1 °F 43% 30.05 in 10.0 mi NNW 8.1 mph - N/A   Clear
8:58 AM 14.0 °F 6.5 °F -13.4 °F 29% 30.03 in 10.0 mi NNW 4.6 mph - N/A   Clear
9:58 AM 19.4 °F 11.5 °F -14.3 °F 22% 29.99 in 10.0 mi South 5.8 mph - N/A   Clear
10:58 AM 19.6 °F 4.7 °F -3.1 °F 37% 29.99 in 10.0 mi SSE 17.3 mph - N/A   Clear
11:58 AM 16.5 °F 0.8 °F -4.9 °F 39% 29.98 in 10.0 mi South 17.3 mph - N/A   Clear
12:58 PM 16.7 °F 3.8 °F -5.1 °F 38% 29.98 in 10.0 mi South 11.5 mph 20.7 mph N/A   Clear
1:58 PM 18.1 °F 8.9 °F -3.1 °F 39% 29.96 in 10.0 mi SE 6.9 mph - N/A   Partly Cloudy
2:58 PM 16.7 °F 4.5 °F -1.1 °F 46% 30.00 in 10.0 mi SSE 10.4 mph - N/A   Mostly Cloudy
3:58 PM 14.0 °F 0.5 °F -1.1 °F 51% 30.03 in 10.0 mi South 11.5 mph - N/A   Mostly Cloudy
4:38 PM 12.2 °F 0.7 °F -0.4 °F 57% 29.80 in 10.0 mi SSE 8.1 mph - N/A   Mostly Cloudy
4:58 PM 13.1 °F -0.7 °F 0.1 °F 56% 30.05 in 10.0 mi SSE 11.5 mph - N/A   Mostly Cloudy
5:38 PM 12.2 °F 0.7 °F 3.2 °F 67% 29.82 in 10.0 mi ESE 8.1 mph - N/A   Overcast
5:43 PM 12.2 °F -1.0 °F 3.2 °F 67% 29.82 in 10.0 mi SE 10.4 mph - N/A   Overcast
5:53 PM 12.2 °F 0.7 °F 3.2 °F 67% 29.82 in 8.0 mi SE 8.1 mph - N/A   Overcast
5:54 PM 12.2 °F 0.7 °F 3.2 °F 67% 29.83 in 8.0 mi SE 8.1 mph - N/A Snow Light Snow
5:58 PM 11.7 °F -0.9 °F 2.5 °F 67% 30.09 in 7.0 mi ESE 9.2 mph - 0.00 in Snow Light Snow
6:10 PM 12.2 °F -0.2 °F 3.2 °F 67% 29.83 in 6.0 mi SSE 9.2 mph - N/A   Haze
6:15 PM 12.2 °F 0.7 °F 3.2 °F 67% 29.83 in 7.0 mi SSE 8.1 mph - N/A   Overcast
6:17 PM 12.2 °F 1.7 °F 3.2 °F 67% 29.83 in 8.0 mi SSE 6.9 mph - N/A Snow Light Snow
6:22 PM 12.2 °F 0.7 °F 3.2 °F 67% 29.83 in 9.0 mi SE 8.1 mph - N/A Snow Light Snow
6:26 PM 12.2 °F 0.7 °F 1.4 °F 62% 29.84 in 10.0 mi SE 8.1 mph - N/A   Overcast
6:56 PM 8.6 °F -1.3 °F 1.4 °F 73% 29.84 in 10.0 mi East 5.8 mph - N/A   Mostly Cloudy
6:58 PM 8.8 °F -1.1 °F 0.5 °F 69% 30.15 in 10.0 mi East 5.8 mph - 0.00 in   Mostly Cloudy
7:03 PM 8.6 °F -1.3 °F -0.4 °F 67% 29.84 in 10.0 mi East 5.8 mph - N/A   Mostly Cloudy
7:13 PM 8.6 °F 2.0 °F -0.4 °F 67% 29.84 in 10.0 mi ENE 3.5 mph - N/A   Mostly Cloudy
7:18 PM 8.6 °F 0.1 °F -0.4 °F 67% 29.84 in 10.0 mi ENE 4.6 mph - N/A   Scattered Clouds
7:39 PM 6.8 °F -4.8 °F -0.4 °F 72% 29.85 in 10.0 mi NW 6.9 mph - N/A Snow Light Snow
7:58 PM 5.2 °F -5.4 °F -1.8 °F 73% 30.16 in 10.0 mi North 5.8 mph - 0.00 in Snow Light Snow
8:17 PM 5.0 °F -4.1 °F -2.2 °F 72% 29.85 in 10.0 mi NNE 4.6 mph - N/A   Overcast
8:26 PM 5.0 °F -4.1 °F -2.2 °F 72% 29.86 in 10.0 mi North 4.6 mph - N/A Snow Light Snow
8:41 PM 5.0 °F -2.1 °F -2.2 °F 72% 29.86 in 10.0 mi North 3.5 mph - N/A   Overcast
8:58 PM 3.9 °F -3.4 °F -2.4 °F 75% 30.14 in 10.0 mi North 3.5 mph - 0.00 in   Mostly Cloudy
9:38 PM 3.2 °F - -4.0 °F 72% 29.86 in 10.0 mi NE 1.2 mph - N/A   Scattered Clouds
9:58 PM 3.6 °F - -3.3 °F 73% 30.10 in 10.0 mi ESE 2.3 mph - N/A   Clear
10:08 PM 3.2 °F -4.2 °F -4.0 °F 72% 29.86 in 10.0 mi NNW 3.5 mph - N/A   Mostly Cloudy
10:58 PM 0.1 °F -9.7 °F -5.6 °F 77% 30.13 in 10.0 mi NNW 4.6 mph - N/A   Overcast
10:59 PM -0.4 °F -12.0 °F -5.8 °F 78% 29.87 in 10.0 mi NNW 5.8 mph - N/A Snow Light Snow
11:07 PM -0.4 °F - -5.8 °F 78% 29.87 in 10.0 mi North 2.3 mph - N/A   Overcast
11:12 PM -0.4 °F -12.0 °F -5.8 °F 78% 29.87 in 10.0 mi North 5.8 mph - N/A   Overcast
11:22 PM -2.2 °F -10.4 °F -7.6 °F 78% 29.86 in 10.0 mi North 3.5 mph - N/A   Overcast
11:27 PM -2.2 °F -10.4 °F -7.6 °F 78% 29.86 in 10.0 mi North 3.5 mph - N/A Snow Light Snow
11:32 PM -2.2 °F -12.5 °F -7.6 °F 78% 29.86 in 10.0 mi North 4.6 mph - N/A Snow Light Snow
11:42 PM -2.2 °F -12.5 °F -7.6 °F 78% 29.86 in 10.0 mi North 4.6 mph - N/A Snow Light Snow
11:58 PM -0.2 °F -11.8 °F -5.6 °F 78% 30.14 in 9.0 mi North 5.8 mph - 0.00 in Snow Light Snow